Location: Shenandoah County Park
(38.9356°N, 78.4524°W)
Time: 13:42:55
(UTC-05:00)

Vanguard 2 Rocket - Pass Details

Date: 05 December 2023
Orbit: 555 x 3309 km, 32.9° (Epoch: 03 March)

Event Time Altitude Azimuth Distance (km) Brightness Sun altitude
Rises 12:19:03 0° 206° (SSW) 5,476 11.9 28.6°
Reaches altitude 10° 12:22:44 10° 197° (SSW) 4,837 12.2 28.5°
Maximum altitude 12:35:26 34° 139° (SE) 4,126 11.1 28.2°
Drops below altitude 10° 12:51:49 10° 85° (E) 6,267 11.1 27.7°
Sets 12:57:23 0° 77° (ENE) 7,255 11.3 27.4°
